sat.trackr.live / text

‹ back to catalog

STARLINK-30568

NORAD 58051 · 2023-158A

PAYLOAD ACTIVE UNKNOWN

§ Identity

Operator
Country
US
Launch date
2023-10-13
Launch site
AFETR
Launch vehicle
Mass (kg)
RCS (m²)

Purposes: comms

External: N2YO · Heavens-Above · Gunter

§ Orbital elements

Epoch: 2026-05-25T04:21:20.379168Z

Period
94.27 min
Inclination
43.0041°
Eccentricity
0.0001455
Mean motion
15.27587341 rev/d
Perigee alt
482.0 km
Apogee alt
484.0 km
Semi-major
6,861.2 km
B*
3.6431e-5
RAAN
315.4711°
Arg perigee
264.1115°
Mean anomaly
95.9571°
Rev number
14,525

§ Raw data

STARLINK-305681 58051U 23158A   26145.18148587  .00000741  00000+0  36431-4 0  99902 58051  43.0041 315.4711 0001455 264.1115  95.9571 15.27587341145256

JSON: /api/v1/satellites/58051 · /tle

For live sub-satellite position, see the globe view (requires WebGL).

§ Visibility from observer

Set your observer location to see the next 7 days of passes ≥ 10°. The values pass through the URL so the page stays shareable.

No JS? Fill the form by hand. The geolocation button needs JavaScript.